Location: Detroit
(42.3310°N, 83.0460°W)
Time: 11:29:01
(UTC-05:00)

Tiros 1 despin weight - Pass Details

Date: 02 December 2023
Orbit: 581 x 624 km, 48.2° (Epoch: 01 March)

Event Time Altitude Azimuth Distance (km) Brightness Sun altitude
Rises 18:17:01 0° 204° (SSW) 2,795 ? -13.8°
Maximum altitude 18:23:03 23° 138° (SE) 1,255 ? -14.9°
Enters shadow 18:24:24 20° 111° (ESE) 1,373 ? -15.1°
